IRIDIUM 116

Last updated on Tue Sep 22 2026 00:03:21 GMT+0000 (Coordinated Universal Time)

1 43072U 17083C 26263.58855449 -.00000002 00000+0 -78243-5 0 9994 2 43072 86.3909 282.1136 0001892 90.4272 269.7141 14.34217426457842
UTC large
Height (km)
Speed (km/s)
/
Latitude / Longitude
Inclination (degrees)
Orbital Period (minutes)
Azimuth
Elevation
Range (km)
Doppler Factor

Next 0 passes for location: London (51.5072 / 0.1276)

No passes found over London.
IRIDIUM 116